Location: Bh?mavarapp?du
(16.7041°N, 80.6518°E)
Time: 07:11:23
(UTC+00:00)

GP-B - Pass Details

Date: 21 April 2021
Orbit: 631 x 635 km, 89.8° (Epoch: 06 May)

Event Time Altitude Azimuth Distance (km) Brightness Sun altitude
Rises 22:56:05 0° 354° (N) 2,914 6.7 -19.5°
Reaches altitude 10° 22:58:22 10° 348° (NNW) 2,006 5.8 -19.0°
Maximum altitude 23:02:35 46° 275° (W) 852 3.3 -18.1°
Enters shadow 23:04:08 32° 225° (SW) 1,084 3.8 -17.7°
